SCP
0 0 0 0 0 0 0 0 0 0 0 0 0 0 0 0 0 0 0 0 0 0
0 0 0 0 0 0 0 0 0 0 0 0 0 0 0 0 0 0 0 0 0 0
0 0 0 0 0 0 0 0 0 0 0 0 0 0 0 0 0 0 0 0 0 0
0 0 0 0 0 0 0 0 0 0 0 0 0 0 0 0 0 0 0 0 0 0
0 0 0 0 0 0 0 0 0 0 0 0 0 0 0 0 0 0 0 0 0 0
0 0 0 0 0 0 0 0 0 0 0 0 0 0 0 0 0 0 0 0 0 0
0 0 0 0 0 0 0 0 0 0 0 0 0 0 0 0 0 0 0 0 0 0
0 0 0 0 0 0 0 0 0 0 0 0 0 0 0 0 0 0 0 0 0 0
0 0 0 0 0 0 0 0 0 0 0 0 0 0 0 0 0 0 0 0 0 0
0 0 0 0 0 0 0 0 0 0 0 0 0 0 0 0 0 0 0 0 0 0
0 0 0 0 0 0 0 0 0 0 0 0 0 0 0 0 0 0 0 0 0 0
0 0 0 0 0 0 0 0 0 0 0 0 0 0 0 0 0 0 0 0 0 0
0 0 0 0 0 0 0 0 0 0 0 0 0 0 0 0 0 0 0 0 0 0
0 0 0 0 0 0 0 0 0 0 0 0 0 0 0 0 0 0 0 0 0 0
Wind_Speed_500mb
6 2 5 9 13 16 18 19 20 17 17 19 22 29 32 32 34 39 31 29 31 32
2 4 9 14 18 18 20 24 23 20 21 23 28 33 35 36 39 36 31 29 30 28
1 6 13 17 19 22 25 29 23 22 24 26 32 34 34 39 36 32 28 27 27 28
3 9 16 20 22 23 28 25 19 21 22 28 32 31 36 30 28 26 25 22 23 27
5 12 18 20 20 24 27 20 17 19 23 28 25 28 34 32 24 26 26 21 21 25
8 15 16 18 18 22 21 19 17 20 25 27 26 29 30 30 25 25 22 22 21 23
11 14 17 16 17 23 21 16 18 21 24 27 25 25 24 25 26 23 21 23 21 23
12 16 16 15 16 24 20 15 20 23 25 27 26 24 26 21 19 14 13 14 15 18
12 14 14 14 13 16 22 22 21 25 27 26 25 26 22 19 16 12 11 12 8 11
10 13 13 13 10 12 21 24 22 24 27 25 23 25 21 16 12 8 2 1 6 3
11 12 13 12 13 13 17 22 24 24 24 23 22 24 14 14 12 7 3 2 4 9
13 19 15 12 15 15 18 21 23 24 22 21 20 18 15 13 12 8 3 3 6 11
13 21 22 18 17 20 21 19 22 23 18 22 19 15 16 14 13 11 3 6 12 15
12 19 24 21 20 23 22 20 22 20 13 19 21 11 5 12 14 7 11 18 24 24
Wind_Direction_500mb
223 287 334 350 341 334 328 321 312 309 307 306 309 311 309 304 297 290 288 291 295 293
212 334 348 351 337 323 313 307 300 296 300 301 306 309 308 303 297 292 282 285 297 295
244 331 337 341 330 316 311 308 297 296 299 298 306 307 304 301 302 294 280 285 289 293
283 324 333 332 327 319 314 311 304 300 304 307 312 314 315 310 309 301 291 278 281 291
306 325 326 328 326 322 320 321 313 309 314 318 320 324 320 316 309 306 299 295 291 289
307 311 323 327 323 324 319 318 315 315 320 315 313 315 311 310 307 305 292 288 291 289
292 322 327 322 321 322 315 317 317 318 318 320 317 316 308 302 301 294 289 284 275 285
320 316 320 315 325 330 324 314 313 312 322 325 319 312 309 302 304 301 292 292 286 285
303 318 312 309 311 331 325 320 318 334 331 323 307 316 307 296 307 283 267 271 281 293
314 319 310 306 292 322 324 322 331 330 329 320 315 309 301 287 296 286 257 5 315 3
334 324 329 346 339 336 319 313 320 323 319 321 318 315 287 276 262 249 207 49 36 39
2 3 356 350 351 331 315 313 307 316 323 323 313 312 292 250 231 226 178 145 87 80
8 6 4 355 349 337 333 313 303 299 325 337 324 310 297 258 222 118 160 143 115 104
5 3 359 359 347 339 325 314 302 290 313 334 341 308 233 109 82 108 139 135 123 110
Wind_Speed_850mb
6 2 5 9 13 16 18 19 20 17 17 19 22 29 32 32 34 39 31 29 31 32
2 4 9 14 18 18 20 24 23 20 21 23 28 33 35 36 39 36 31 29 30 28
1 6 13 17 19 22 25 29 23 22 24 26 32 34 34 39 36 32 28 27 27 28
3 9 16 20 22 23 28 25 19 21 22 28 32 31 36 30 28 26 25 22 23 27
5 12 18 20 20 24 27 20 17 19 23 28 25 28 34 32 24 26 26 21 21 25
8 15 16 18 18 22 21 19 17 20 25 27 26 29 30 30 25 25 22 22 21 23
11 14 17 16 17 23 21 16 18 21 24 27 25 25 24 25 26 23 21 23 21 23
12 16 16 15 16 24 20 15 20 23 25 27 26 24 26 21 19 14 13 14 15 18
12 14 14 14 13 16 22 22 21 25 27 26 25 26 22 19 16 12 11 12 8 11
10 13 13 13 10 12 21 24 22 24 27 25 23 25 21 16 12 8 2 1 6 3
11 12 13 12 13 13 17 22 24 24 24 23 22 24 14 14 12 7 3 2 4 9
13 19 15 12 15 15 18 21 23 24 22 21 20 18 15 13 12 8 3 3 6 11
13 21 22 18 17 20 21 19 22 23 18 22 19 15 16 14 13 11 3 6 12 15
12 19 24 21 20 23 22 20 22 20 13 19 21 11 5 12 14 7 11 18 24 24
Wind_Direction_850mb
223 287 334 350 341 334 328 321 312 309 307 306 309 311 309 304 297 290 288 291 295 293
212 334 348 351 337 323 313 307 300 296 300 301 306 309 308 303 297 292 282 285 297 295
244 331 337 341 330 316 311 308 297 296 299 298 306 307 304 301 302 294 280 285 289 293
283 324 333 332 327 319 314 311 304 300 304 307 312 314 315 310 309 301 291 278 281 291
306 325 326 328 326 322 320 321 313 309 314 318 320 324 320 316 309 306 299 295 291 289
307 311 323 327 323 324 319 318 315 315 320 315 313 315 311 310 307 305 292 288 291 289
292 322 327 322 321 322 315 317 317 318 318 320 317 316 308 302 301 294 289 284 275 285
320 316 320 315 325 330 324 314 313 312 322 325 319 312 309 302 304 301 292 292 286 285
303 318 312 309 311 331 325 320 318 334 331 323 307 316 307 296 307 283 267 271 281 293
314 319 310 306 292 322 324 322 331 330 329 320 315 309 301 287 296 286 257 5 315 3
334 324 329 346 339 336 319 313 320 323 319 321 318 315 287 276 262 249 207 49 36 39
2 3 356 350 351 331 315 313 307 316 323 323 313 312 292 250 231 226 178 145 87 80
8 6 4 355 349 337 333 313 303 299 325 337 324 310 297 258 222 118 160 143 115 104
5 3 359 359 347 339 325 314 302 290 313 334 341 308 233 109 82 108 139 135 123 110